CZ-3B DEB, 40185

Orbit data source: Space-Track

CZ-3B DEB, 40185 is space debris in HEO originally from a launch on Mon, 19 Dec 2011 UTC launched from the Xichang Space Center, China (XSC). Debris objects in space refer to the collection of defunct objects orbiting the Earth. Examples of debris include non-operational satellites, rocket bodies, and fragments generated from explosions, collisions, or faulty payload assembly.

Loading next visibility...
Identifier
40185, 2011-077J
Orbit
HEO
Country
Flag of CNCN / PRC
Related business
Manufacturer
CALT
Mission
Spacecraft
Bus & Motor
Unknown
Mass
Unknown
Launch date (UTC)
2011-12-19 (14 years ago)
Launch vehicle
Unknown
Launch site
Xichang Space Center, China (XSC)
Object type
Payload
Rocket body
Debris
Shape & HBR
Unknown shape, 0.6 m
Radar Cross Section
Medium (>0.1 m² and <1 m²)

Expand to show TLE details & history
Last TLE update: 1 day ago

TLE from 1 day ago
0 CZ-3B DEB
1 40185U 11077J   25297.25111771 -.00000134  00000-0  56720-3 0  9996
2 40185  25.8792 308.9123 7472483 143.0542 304.9080  1.92819601 80776
Epoch: 2025-10-24T06:01Z
TLE epoch observation values (Epoch: 2025-10-24T06:01:36.570Z)
Latitude
-0.00016°
Longitude
-174.388°
Altitude
23,484.029 km
Speed
3.475 km/s
True Right ascension
20h 35m 39s
True Declination
0° 00' 01"
Sunlit
Object was in daylight at epoch
Visualization orbit readout
Latitude
Unknown
Longitude
Unknown
Altitude
Unknown
Speed
Unknown
Apparent Right ascension
Unknown
Apparent Declination
Unknown
Sunlit
N/A
Visualization observer readout
Local Sidereal Time
02:15:55
Azimuth
Unknown
Elevation
Unknown
Doppler factor
Unknown
Orbital elements
Apogee altitude
41,270.655 km
Perigee altitude
514.594 km
Semi-major axis
27,270.762 km
Eccentricity
0.74725
Inclination
25.8792°
RAAN
308.9123°
Arg. of periapsis
143.0542°
True anomaly
216.86998°
Mean anomaly
304.908°
Eccentric anomaly
262.46366°
Mean motion
0.48194 °/min
Orbital period
746.97 mins
BSTAR
0.0005672
Loading maneuver chart data...
Computing Atmospheric mass density...
Loading historical data...
Loading historical data...
Loading historical data...
Loading historical data...
Loading historical data...
Loading historical data...
Loading historical data...

Documentation

Showing up to 5 results
|